Location: Saratoga Springs
(43.0831°N, 73.7850°W)
Time: 17:25:50
(UTC-04:00)

Vanguard 1 Rocket - Pass Details

Date: 21 April 2024
Orbit: 651 x 4220 km, 34.3° (Epoch: 20 May)

Event Time Altitude Azimuth Distance (km) Brightness Sun altitude
Rises 00:13:57 0° 269° (W) 4,207 10.9 -34.1°
Reaches altitude 10° 00:16:37 10° 259° (W) 3,576 10.4 -34.2°
Enters shadow 00:19:22 21° 244° (WSW) 3,134 9.9 -34.3°
Maximum altitude 00:24:55 33° 199° (SSW) 3,138 - -34.5°
Drops below altitude 10° 00:39:13 10° 144° (SE) 6,163 - -34.8°
Sets 00:45:48 0° 137° (SE) 7,712 - -34.9°
